Content
SEND FEEDBACK

Daily
Averages
Monthly
Summary
United States of America

ROME, GEORGIA


Home > North America > United States > Georgia
Elevation: 644 feet     Latitude: 34 20N     Longitude: 085 09W

WEATHER
 
SELECT A DAY
Number of Records: 210,765;   Date Range: 1/1/95 - 8/28/14
 
SHARE

PRINT THIS DATA

[ ← Previous Day ]
WEATHER ALMANAC - MARCH 29, 2014
[ Next Day → ]
[ °C ]   °F
Weather ElementAverageHighLow
Temperature57.3 °F63 °F (1:53 pm)46 °F (11:53 pm)
Dewpoint54.7 °F61 °F (11:53 am)39 °F (9:53 pm)
Humidity91.3 %100 % (1:53 am)67 % (4:53 pm)
Barometer29.86 in30.07 in (11:53 pm)29.77 in (11:53 am)
Wind Speed8.6 mph21.9 mph (2:53 pm)
Wind Gust33.4 mph (2:53 pm)
Weather ElementAverage
Visibility6.9 mi
Wind DirectionSSE (172.7 °)

Weather ElementTotal
Precipitation0.57 in
Heating Degree Days10.5 (Base 65)
Growing Degree Days4.5 (Base 50)
Averaged from 49 records on March 29, 2014
WEATHER CONDITIONS BREAKOUT
WIND DIRECTION BREAKOUT
WEATHER BY HOUR - MARCH 29, 2014
[ °C ]   °F
Local TimeTemperatureDewpointHumidityBarometerVisibilityWind DirectionWind SpeedGust SpeedPrecipitationEventsConditions
1:10 AM57.9 °F57.0 °F97 %29.99 in3.0 miNorth0.01 inRainLight Rain
1:53 AM57.0 °F57.0 °F100 %29.93 in3.0 miNE (50°)4.6 mph0.01 inRainLight Rain
2:18 AM57.0 °F57.0 °F100 %29.94 in4.0 miNorth0.00 inOvercast
2:37 AM57.0 °F57.0 °F100 %29.94 in6.0 miNorth0.00 inOvercast
2:53 AM57.0 °F57.0 °F100 %29.92 in3.0 miNorth0.00 inRainLight Rain
3:02 AM57.0 °F57.0 °F100 %29.93 in2.5 miNorth0.01 inRainLight Rain
3:12 AM57.0 °F57.0 °F100 %29.93 in4.0 miCalm0.01 inRainLight Rain
3:53 AM57.0 °F57.0 °F100 %29.87 in3.0 miNNE (30°)4.6 mph0.01 inRainLight Rain
4:02 AM57.0 °F57.0 °F100 %29.88 in2.5 miCalm0.01 inRainLight Rain
4:10 AM57.0 °F57.0 °F100 %29.88 in4.0 miCalm0.01 inRainLight Rain
4:53 AM57.0 °F57.0 °F100 %29.85 in3.0 miCalm0.02 inRainLight Rain
5:53 AM57.0 °F57.0 °F100 %29.85 in8.0 miSE (130°)3.5 mph0.01 inOvercast
6:53 AM57.0 °F57.0 °F100 %29.85 in10.0 miSSE (160°)6.9 mph0.00 inOvercast
7:53 AM57.0 °F57.0 °F100 %29.78 in10.0 miESE (120°)5.8 mph0.03 inOvercast
8:53 AM59.0 °F57.9 °F96 %29.80 in10.0 miSSE (150°)5.8 mphOvercast
9:03 AM59.0 °F57.9 °F96 %29.81 in10.0 miSSE (160°)4.6 mphOvercast
9:07 AM59.0 °F57.9 °F96 %29.81 in10.0 miSSE (160°)4.6 mphOvercast
9:14 AM59.0 °F59.0 °F100 %29.82 in10.0 miSouth (180°)4.6 mphOvercast
9:23 AM59.0 °F59.0 °F100 %29.81 in10.0 miCalmOvercast
9:53 AM60.1 °F59.0 °F96 %29.79 in10.0 miCalmOvercast
10:53 AM60.1 °F59.0 °F96 %29.78 in8.0 miSouth (190°)3.5 mph0.00 inRainLight Rain
11:21 AM60.1 °F60.1 °F100 %29.79 in3.0 miVariable3.5 mph0.00 inRainLight Rain
11:23 AM60.1 °F60.1 °F100 %29.79 in2.5 miVariable4.6 mph0.01 inRainLight Rain
11:29 AM60.1 °F60.1 °F100 %29.79 in3.0 miSSW (200°)4.6 mph0.01 inRainLight Rain
11:44 AM61.0 °F60.1 °F97 %29.79 in10.0 miVariable5.8 mph0.01 inOvercast
11:53 AM62.1 °F61.0 °F96 %29.77 in10.0 miSW (220°)8.1 mph0.01 inOvercast
11:59 AM62.1 °F60.1 °F93 %29.78 in10.0 miSSW (210°)10.4 mphOvercast
12:05 PM62.1 °F60.1 °F93 %29.78 in10.0 miSSW (210°)6.9 mphOvercast
12:39 PM61.0 °F59.0 °F93 %29.78 in8.0 miWSW (240°)9.2 mph0.00 inOvercast
12:49 PM60.8 °F59.0 °F94 %29.78 in2.5 miWSW (240°)10.4 mph17.3 mph0.01 inRainRain
12:53 PM61.0 °F59.0 °F93 %29.77 in2.0 miWSW (240°)11.5 mph17.3 mph0.01 inRainLight Rain
1:13 PM61.0 °F59.0 °F93 %29.78 in7.0 miWest (270°)8.1 mph0.03 inRainLight Rain
1:53 PM63.0 °F59.0 °F87 %29.77 in7.0 miWest (260°)8.1 mph0.03 inRainLight Rain
2:01 PM61.0 °F59.0 °F93 %29.78 in1.8 miWest (270°)15.0 mph23.0 mph0.03 inRainRain
2:04 PM61.0 °F57.9 °F90 %29.79 in1.2 miNW (320°)17.3 mph24.2 mph0.04 inRainRain
2:13 PM60.1 °F57.9 °F93 %29.79 in3.0 miNNW (340°)13.8 mph23.0 mph0.08 inRainLight Rain
2:32 PM62.1 °F57.9 °F86 %29.79 in10.0 miWNW (300°)11.5 mph0.08 inOvercast
2:53 PM60.1 °F55.9 °F86 %29.80 in5.0 miNW (310°)21.9 mph33.4 mph0.08 inRainLight Rain
3:53 PM55.9 °F48.0 °F75 %29.82 in10.0 miNW (310°)17.3 mph31.1 mph0.01 inOvercast
4:53 PM57.9 °F46.9 °F67 %29.86 in10.0 miNW (320°)12.7 mph21.9 mphMostly Cloudy
5:53 PM54.0 °F44.1 °F69 %29.91 in10.0 miWNW (300°)20.7 mph31.1 mphOvercast
6:28 PM52.0 °F43.0 °F71 %29.95 in10.0 miWNW (300°)16.1 mph28.8 mphOvercast
6:53 PM51.1 °F43.0 °F74 %29.96 in10.0 miWNW (300°)18.4 mph25.3 mphOvercast
7:53 PM50.0 °F42.1 °F74 %29.99 in10.0 miNW (310°)11.5 mph19.6 mphOvercast
8:53 PM48.0 °F41.0 °F77 %30.00 in10.0 miNW (320°)11.5 mph21.9 mphScattered Clouds
9:29 PM46.9 °F39.9 °F77 %30.03 in10.0 miNorth (360°)13.8 mph19.6 mphMostly Cloudy
9:53 PM46.9 °F39.0 °F74 %30.04 in10.0 miNNW (330°)13.8 mph20.7 mphOvercast
10:53 PM46.9 °F39.0 °F74 %30.06 in10.0 miNNW (330°)11.5 mph20.7 mphOvercast
11:53 PM46.0 °F39.0 °F76 %30.07 in10.0 miNW (320°)10.4 mphOvercast
Hourly data recorded from KRMG, located miles away from Rome, Georgia







STORIES FROM OUR PARTNERS